When you browse on this site, cookies collect data to enhance your experience and personalize the content and advertising you see.
Visit our Privacy Policy to learn more. By continuing to use the site, you agree to this use of cookies and data.
  • In United Kingdom
  • List of Countries
  • For 7 days
  • Water Temperature
  • Satellite Maps
  • Weather Map
  • Weather Widgets
  • user-avatar
    Login

    Hourly Weather Bujumbura

    Today, 20 January, Sunday

    Time Temperature Precipitation Wind Pressure Humidity
    00:00 +21°C° 0.1 mm 0 mps 694 mmHg 77%
    01:00 +23°C° 0.1 mm 1 mps 694 mmHg 78%
    02:00 +23°C° 0.1 mm 1 mps 693 mmHg 78%
    03:00 +22°C° 0 mm 1 mps 693 mmHg 78%
    04:00 +22°C° 0 mm 1 mps 693 mmHg 78%
    05:00 +22°C° 0 mm 1 mps 693 mmHg 79%
    06:00 +23°C° 0 mm 1 mps 694 mmHg 75%
    07:00 +24°C° 0 mm 1 mps 694 mmHg 71%
    08:00 +25°C° 0 mm 1 mps 695 mmHg 68%
    09:00 +27°C° 0 mm 1 mps 694 mmHg 61%
    10:00 +29°C° 0 mm 1 mps 694 mmHg 54%
    11:00 +31°C° 0 mm 1 mps 694 mmHg 47%
    12:00 +32°C° 0 mm 1 mps 694 mmHg 45%
    13:00 +32°C° 0 mm 2 mps 693 mmHg 42%
    14:00 +34°C° 0 mm 2 mps 692 mmHg 39%
    15:00 +32°C° 0.1 mm 2 mps 692 mmHg 44%
    16:00 +30°C° 0.1 mm 2 mps 692 mmHg 48%
    17:00 +29°C° 0.1 mm 3 mps 691 mmHg 52%
    18:00 +27°C° 0 mm 2 mps 692 mmHg 60%
    19:00 +25°C° 0 mm 1 mps 692 mmHg 67%
    20:00 +23°C° 0 mm 1 mps 693 mmHg 75%
    21:00 +23°C° 0.1 mm 1 mps 693 mmHg 76%
    22:00 +23°C° 0.1 mm 1 mps 694 mmHg 77%
    23:00 +21°C° 0.1 mm 0 mps 694 mmHg 78%

    Tomorrow, 21 January, Monday

    Time Temperature Precipitation Wind Pressure Humidity
    00:00 +21°C° 0.3 mm 0 mps 694 mmHg 79%
    01:00 +21°C° 0.3 mm 0 mps 694 mmHg 79%
    02:00 +20°C° 0.3 mm 0 mps 694 mmHg 80%
    03:00 +20°C° 0.3 mm 0 mps 694 mmHg 80%
    04:00 +22°C° 0.3 mm 1 mps 694 mmHg 80%
    05:00 +22°C° 0.3 mm 1 mps 694 mmHg 80%
    06:00 +23°C° 0.1 mm 1 mps 694 mmHg 76%
    07:00 +24°C° 0.1 mm 1 mps 695 mmHg 73%
    08:00 +25°C° 0.1 mm 1 mps 695 mmHg 69%
    09:00 +27°C° 0.1 mm 1 mps 695 mmHg 63%
    10:00 +29°C° 0.1 mm 1 mps 695 mmHg 56%
    11:00 +31°C° 0.1 mm 1 mps 695 mmHg 49%
    12:00 +31°C° 0 mm 2 mps 694 mmHg 47%
    13:00 +32°C° 0 mm 2 mps 693 mmHg 44%
    14:00 +34°C° 0 mm 3 mps 693 mmHg 42%
    15:00 +31°C° 0.1 mm 3 mps 692 mmHg 47%
    16:00 +30°C° 0.1 mm 2 mps 692 mmHg 52%
    17:00 +29°C° 0.1 mm 2 mps 691 mmHg 56%
    18:00 +27°C° 0.2 mm 2 mps 692 mmHg 63%
    19:00 +26°C° 0.2 mm 1 mps 692 mmHg 69%
    20:00 +24°C° 0.2 mm 1 mps 693 mmHg 75%
    21:00 +22°C° 0.3 mm 0 mps 693 mmHg 77%
    22:00 +22°C° 0.3 mm 0 mps 694 mmHg 78%
    23:00 +21°C° 0.3 mm 0 mps 694 mmHg 80%

    Day after tomorrow, 22 January, Tuesday

    Time Temperature Precipitation Wind Pressure Humidity
    00:00 +21°C° 0.1 mm 0 mps 694 mmHg 80%
    01:00 +23°C° 0.1 mm 1 mps 693 mmHg 80%
    02:00 +23°C° 0.1 mm 1 mps 693 mmHg 79%
    03:00 +23°C° 0 mm 1 mps 693 mmHg 79%
    04:00 +23°C° 0 mm 1 mps 693 mmHg 78%
    05:00 +23°C° 0 mm 1 mps 693 mmHg 78%
    06:00 +24°C° 0 mm 1 mps 693 mmHg 74%
    07:00 +25°C° 0 mm 1 mps 693 mmHg 70%
    08:00 +26°C° 0 mm 1 mps 694 mmHg 66%
    09:00 +28°C° 0 mm 1 mps 694 mmHg 60%
    10:00 +30°C° 0 mm 1 mps 694 mmHg 53%
    11:00 +32°C° 0 mm 1 mps 694 mmHg 47%
    12:00 +32°C° 0 mm 1 mps 693 mmHg 44%
    13:00 +34°C° 0 mm 2 mps 692 mmHg 42%
    14:00 +34°C° 0 mm 3 mps 691 mmHg 40%
    15:00 +33°C° 0 mm 3 mps 691 mmHg 44%
    16:00 +30°C° 0 mm 2 mps 691 mmHg 48%
    17:00 +29°C° 0 mm 2 mps 690 mmHg 53%
    18:00 +28°C° 0 mm 2 mps 691 mmHg 57%
    19:00 +26°C° 0 mm 1 mps 692 mmHg 61%
    20:00 +23°C° 0 mm 0 mps 692 mmHg 66%
    21:00 +23°C° 0 mm 0 mps 692 mmHg 67%
    22:00 +22°C° 0 mm 0 mps 693 mmHg 69%
    23:00 +22°C° 0 mm 0 mps 693 mmHg 70%

    23 January, Wednesday

    Time Temperature Precipitation Wind Pressure Humidity
    00:00 +21°C° 0 mm 0 mps 692 mmHg 71%
    01:00 +21°C° 0 mm 0 mps 692 mmHg 72%
    02:00 +23°C° 0 mm 1 mps 692 mmHg 73%
    03:00 +23°C° 0 mm 1 mps 692 mmHg 73%
    04:00 +22°C° 0 mm 1 mps 692 mmHg 74%
    05:00 +22°C° 0 mm 1 mps 692 mmHg 74%
    06:00 +24°C° 0 mm 1 mps 692 mmHg 69%
    07:00 +26°C° 0 mm 1 mps 693 mmHg 63%
    08:00 +27°C° 0 mm 1 mps 693 mmHg 57%
    09:00 +30°C° 0 mm 1 mps 693 mmHg 50%
    10:00 +32°C° 0 mm 1 mps 693 mmHg 42%
    11:00 +34°C° 0 mm 1 mps 693 mmHg 35%
    12:00 +35°C° 0 mm 1 mps 692 mmHg 34%
    13:00 +35°C° 0 mm 1 mps 691 mmHg 33%
    14:00 +36°C° 0 mm 2 mps 690 mmHg 32%
    15:00 +35°C° 0 mm 2 mps 690 mmHg 36%
    16:00 +32°C° 0 mm 2 mps 690 mmHg 39%
    17:00 +30°C° 0 mm 2 mps 690 mmHg 43%
    18:00 +29°C° 0 mm 1 mps 690 mmHg 47%
    19:00 +27°C° 0 mm 1 mps 691 mmHg 52%
    20:00 +25°C° 0 mm 1 mps 692 mmHg 56%
    21:00 +23°C° 0 mm 0 mps 692 mmHg 57%
    22:00 +22°C° 0 mm 0 mps 693 mmHg 58%
    23:00 +22°C° 0 mm 0 mps 693 mmHg 60%

    24 January, Thursday

    Time Temperature Precipitation Wind Pressure Humidity
    00:00 +22°C° 0 mm 0 mps 693 mmHg 61%
    01:00 +21°C° 0 mm 0 mps 692 mmHg 62%
    02:00 +21°C° 0 mm 0 mps 692 mmHg 63%
    03:00 +23°C° 0 mm 1 mps 692 mmHg 64%
    04:00 +22°C° 0 mm 1 mps 692 mmHg 66%
    05:00 +22°C° 0 mm 1 mps 692 mmHg 67%
    06:00 +24°C° 0 mm 1 mps 693 mmHg 63%
    07:00 +26°C° 0 mm 1 mps 693 mmHg 59%
    08:00 +27°C° 0 mm 1 mps 694 mmHg 55%
    09:00 +30°C° 0 mm 1 mps 694 mmHg 48%
    10:00 +32°C° 0 mm 1 mps 693 mmHg 41%
    11:00 +35°C° 0 mm 1 mps 693 mmHg 35%
    12:00 +35°C° 0 mm 1 mps 692 mmHg 34%
    13:00 +36°C° 0 mm 2 mps 692 mmHg 33%
    14:00 +36°C° 0 mm 2 mps 691 mmHg 31%
    15:00 +34°C° 0.1 mm 2 mps 691 mmHg 37%
    16:00 +31°C° 0.1 mm 2 mps 690 mmHg 42%
    17:00 +29°C° 0.1 mm 3 mps 690 mmHg 48%
    18:00 +28°C° 0.2 mm 2 mps 691 mmHg 55%
    19:00 +26°C° 0.2 mm 1 mps 692 mmHg 62%
    20:00 +24°C° 0.2 mm 1 mps 692 mmHg 68%
    21:00 +24°C° 0.1 mm 1 mps 693 mmHg 70%
    22:00 +23°C° 0.1 mm 1 mps 693 mmHg 72%
    23:00 +21°C° 0.1 mm 0 mps 693 mmHg 74%

    25 January, Friday

    Time Temperature Precipitation Wind Pressure Humidity
    00:00 +22°C° 0 mm 1 mps 693 mmHg 74%
    01:00 +22°C° 0 mm 1 mps 692 mmHg 73%
    02:00 +22°C° 0 mm 1 mps 692 mmHg 72%
    03:00 +22°C° 0 mm 1 mps 692 mmHg 72%
    04:00 +22°C° 0 mm 1 mps 692 mmHg 72%
    05:00 +22°C° 0 mm 1 mps 693 mmHg 72%
    06:00 +23°C° 0 mm 1 mps 693 mmHg 67%
    07:00 +25°C° 0 mm 1 mps 694 mmHg 61%
    08:00 +27°C° 0 mm 1 mps 694 mmHg 56%
    09:00 +29°C° 0 mm 1 mps 694 mmHg 50%
    10:00 +32°C° 0 mm 1 mps 694 mmHg 43%
    11:00 +34°C° 0 mm 1 mps 694 mmHg 37%
    12:00 +35°C° 0.2 mm 1 mps 694 mmHg 37%
    13:00 +36°C° 0.2 mm 1 mps 693 mmHg 38%
    14:00 +36°C° 0.2 mm 1 mps 692 mmHg 39%
    15:00 +35°C° 0.4 mm 1 mps 692 mmHg 42%
    16:00 +33°C° 0.4 mm 1 mps 691 mmHg 46%
    17:00 +31°C° 0.4 mm 2 mps 691 mmHg 50%
    18:00 +29°C° 0 mm 1 mps 691 mmHg 56%
    19:00 +27°C° 0 mm 1 mps 692 mmHg 63%
    20:00 +25°C° 0 mm 1 mps 692 mmHg 69%
    21:00 +25°C° 0 mm 1 mps 693 mmHg 70%
    22:00 +24°C° 0 mm 1 mps 693 mmHg 72%
    23:00 +24°C° 0 mm 1 mps 693 mmHg 73%
    Show more